[[{"header":{"parameterUnit":"m.s-1","parameterCategory":1,"la1":30.2992,"la2":30.254,"lo1":-89.0895,"lo2":-89.0443,"dy":0.0025,"dx":0.0025,"nx":19,"ny":19,"refTime":"2026-04-07T21:00:00:Z","depth":0,"parameterNumber":2,"parameterNumberName":"U-component_of_WINDS"},"data":[0,0,0,-3.7231,-3.7232,-3.7288,-3.7288,-3.7376,-3.7377,0,0,0,0,0,0,0,0,0,0,0,-3.7221,-3.7222,-3.723,-3.7232,-3.7288,-3.7288,-3.7376,-3.7377,0,0,0,0,0,0,0,0,0,0,0,-3.7221,-3.7222,-3.7223,-3.7232,-3.7288,-3.7288,-3.7375,-3.7328,0,0,0,0,0,0,0,0,0,0,-3.7271,-3.7268,-3.7221,-3.7223,-3.7233,-3.7288,-3.7288,-3.7326,-3.7331,-3.7356,0,-3.7378,0,-3.7379,-3.7383,-3.7384,0,0,0,-3.7227,-3.7264,-3.7272,-3.7223,-3.7233,-3.7288,-3.7261,-3.7328,-3.7335,-3.7364,-3.738,-3.7383,-3.738,-3.7384,-3.7384,-3.7544,-3.7545,0,0,-3.7224,-3.7235,-3.7268,-3.7277,-3.7266,-3.726,-3.7263,-3.7332,-3.7351,-3.738,-3.7384,-3.7382,-3.7385,-3.7385,-3.7543,-3.7544,0,0,0,-3.7219,-3.7233,-3.724,-3.7274,-3.7282,-3.7261,-3.7265,-3.7348,-3.7349,-3.7385,-3.7383,-3.7385,-3.7386,-3.7542,-3.7543,-3.7603,0,0,0,-3.7216,-3.723,-3.7239,-3.7246,-3.7281,-3.7315,-3.728,-3.7344,-3.7352,-3.7382,-3.7385,-3.7387,-3.7541,-3.7543,-3.7599,-3.763,0,0,0,-3.7215,-3.7229,-3.724,-3.7246,-3.7271,-3.7314,-3.7319,-3.7345,-3.7351,-3.7384,-3.7388,-3.754,-3.7542,-3.7595,-3.7624,-3.7678,0,0,0,-3.7217,-3.7291,-3.7241,-3.7323,-3.727,-3.7349,-3.7318,-3.7376,-3.7412,-3.7386,-3.7541,-3.7543,-3.7594,-3.7621,-3.7674,-3.7727,-3.7749,0,0,-3.7316,-3.7303,-3.735,-3.7308,-3.7398,-3.734,-3.744,-3.7462,-3.7455,-3.7516,-3.7519,-3.76,-3.7624,-3.7677,-3.7864,-3.7882,0,0,0,-3.7386,-3.7421,-3.7442,-3.7476,-3.7494,-3.7515,-3.752,-3.7529,-3.758,-3.7488,-3.7632,-3.7646,-3.7677,-3.7702,-3.7717,-3.7745,-3.7554,-3.7554,-3.7554,-3.7543,-3.7531,-3.761,-3.7606,-3.764,-3.7646,-3.7674,-3.7688,-3.7664,-3.7699,-3.7718,-3.7833,-3.7862,-3.7873,-3.7902,-3.7742,-3.7742,-3.7743,-3.7743,-3.769,-3.7739,-3.7709,-3.7775,-3.7763,-3.7819,-3.783,-3.7813,-3.7866,-3.7817,-3.7843,-3.7793,-3.7893,-3.7918,-3.7747,-3.7746,-3.7746,-3.7745,-3.7745,-3.7794,-3.7816,-3.7825,-3.7876,-3.7917,-3.791,-3.7963,-3.795,-3.7938,-3.7964,-3.7985,-3.7984,-3.7984,-3.7974,-3.7975,-3.7975,-3.7975,-3.7976,-3.7976,-3.79,-3.7908,-3.7954,-3.7982,-3.8004,-3.8032,-3.8041,-3.8063,-3.8085,-3.8072,-3.8072,-3.8049,-3.7903,-3.7869,-3.7982,-3.7981,-3.798,-3.798,-3.7979,-3.8059,-3.8021,-3.8091,-3.8114,-3.8148,-3.8192,-3.8174,-3.8222,-3.8238,-3.8266,-3.8237,-3.813,-3.8117,-3.8105,-3.8077,-3.8237,-3.8237,-3.8237,-3.8237,-3.8149,-3.814,-3.8211,-3.8249,-3.8283,-3.8275,-3.836,-3.837,-3.8374,-3.8385,-3.8359,-3.832,-3.8308,-3.8301,-3.8285,-3.8259,-3.8462,-3.8462,-3.8462,-3.8248,-3.8243,-3.8316,-3.8318,-3.8344,-3.8369,-3.8449,-3.8497,-3.8493,-3.8471,-3.8394,-3.8385,-3.8321,-3.83,-3.8277,-3.8252,-3.8204,0,0]},{"header":{"parameterUnit":"m.s-1","parameterCategory":1,"la1":30.2992,"la2":30.254,"lo1":-89.0895,"lo2":-89.0443,"dy":0.0025,"dx":0.0025,"nx":19,"ny":19,"refTime":"2026-04-07T21:00:00:Z","depth":0,"parameterNumber":3,"parameterNumberName":"V-component_of_WINDS"},"data":[0,0,0,-1.094,-1.0942,-1.1048,-1.1049,-1.1175,-1.1176,0,0,0,0,0,0,0,0,0,0,0,-1.0899,-1.09,-1.0939,-1.0942,-1.1048,-1.1049,-1.1175,-1.1176,0,0,0,0,0,0,0,0,0,0,0,-1.0899,-1.0899,-1.09,-1.0942,-1.1048,-1.1049,-1.1175,-1.1099,0,0,0,0,0,0,0,0,0,0,-1.0998,-1.095,-1.0899,-1.09,-1.0943,-1.1048,-1.1049,-1.1095,-1.1104,-1.1122,0,-1.1133,0,-1.1156,-1.1184,-1.1184,0,0,0,-1.095,-1.0943,-1.098,-1.09,-1.0944,-1.1048,-1.1002,-1.11,-1.1109,-1.1133,-1.1135,-1.114,-1.1159,-1.1185,-1.1185,-1.126,-1.126,0,0,-1.0944,-1.0914,-1.0973,-1.0985,-1.0964,-1.0999,-1.1005,-1.1106,-1.1108,-1.1136,-1.1143,-1.1161,-1.1185,-1.1186,-1.126,-1.126,0,0,0,-1.0922,-1.091,-1.0944,-1.098,-1.0999,-1.1002,-1.1009,-1.1103,-1.1117,-1.1145,-1.1162,-1.1186,-1.1187,-1.126,-1.126,-1.123,0,0,0,-1.0918,-1.0897,-1.0941,-1.0924,-1.0997,-1.1052,-1.1004,-1.111,-1.1122,-1.1161,-1.1186,-1.1189,-1.126,-1.126,-1.123,-1.1221,0,0,0,-1.0895,-1.0894,-1.0906,-1.0922,-1.0966,-1.1051,-1.107,-1.1113,-1.1132,-1.1184,-1.1189,-1.126,-1.126,-1.1231,-1.1222,-1.1232,0,0,0,-1.0863,-1.0879,-1.0905,-1.093,-1.0965,-1.103,-1.107,-1.1121,-1.1162,-1.1187,-1.126,-1.126,-1.1232,-1.1223,-1.1233,-1.1235,-1.1233,0,0,-1.0866,-1.0878,-1.0895,-1.0922,-1.0974,-1.1016,-1.1066,-1.1133,-1.1167,-1.1228,-1.123,-1.123,-1.1222,-1.1232,-1.1231,-1.1229,0,0,0,-1.0886,-1.0898,-1.0919,-1.0955,-1.1005,-1.1048,-1.111,-1.1136,-1.1189,-1.1191,-1.1237,-1.1234,-1.1241,-1.1243,-1.1242,-1.1251,-1.1259,-1.1259,-1.1259,-1.0849,-1.089,-1.0921,-1.0975,-1.101,-1.1074,-1.1108,-1.1153,-1.1185,-1.1195,-1.1214,-1.1208,-1.1209,-1.1209,-1.1217,-1.1218,-1.1218,-1.1218,-1.1218,-1.0859,-1.0883,-1.0924,-1.0969,-1.1013,-1.1053,-1.1116,-1.1137,-1.1183,-1.1197,-1.1205,-1.1217,-1.1205,-1.1215,-1.1216,-1.1216,-1.1216,-1.1217,-1.1217,-1.084,-1.0858,-1.0887,-1.0945,-1.0986,-1.1041,-1.1082,-1.1121,-1.1159,-1.1167,-1.1192,-1.1192,-1.1199,-1.1176,-1.1176,-1.1176,-1.1176,-1.1176,-1.1176,-1.0809,-1.0842,-1.0871,-1.0925,-1.0955,-1.0998,-1.1064,-1.1095,-1.114,-1.1166,-1.1166,-1.1198,-1.1195,-1.1194,-1.1175,-1.1175,-1.1176,-1.1176,-1.1176,-1.0805,-1.0812,-1.0855,-1.0884,-1.0953,-1.0992,-1.1041,-1.1101,-1.1133,-1.1153,-1.1183,-1.1174,-1.119,-1.1192,-1.1191,-1.1173,-1.1173,-1.1173,-1.1173,-1.0789,-1.08,-1.0854,-1.0898,-1.0947,-1.0995,-1.1047,-1.1099,-1.1155,-1.1178,-1.1186,-1.1189,-1.1189,-1.1205,-1.1206,-1.1206,-1.1192,-1.1192,-1.1192,-1.079,-1.0807,-1.0842,-1.0893,-1.095,-1.1,-1.105,-1.1102,-1.1167,-1.1194,-1.1197,-1.1196,-1.1201,-1.12,-1.1227,-1.1228,-1.1229,0,0]}]]